• In Lithuania
  • List of Countries
  • For 7 days
  • Water Temperature
  • Satellite Maps
  • Weather Map
  • Weather Widgets
  • user-avatar
    Login

    Hourly Weather Lepe

    Today, 18 November, Saturday

    Time Temperature Precipitation Wind Pressure Humidity
    00:00 +14°C° 0 mm 2 mps 761 mmHg 53%
    01:00 +14°C° 0 mm 2 mps 761 mmHg 54%
    02:00 +14°C° 0 mm 2 mps 761 mmHg 54%
    03:00 +13°C° 0 mm 2 mps 760 mmHg 54%
    04:00 +13°C° 0 mm 2 mps 760 mmHg 54%
    05:00 +13°C° 0 mm 2 mps 760 mmHg 55%
    06:00 +12°C° 0 mm 2 mps 761 mmHg 56%
    07:00 +14°C° 0 mm 2 mps 761 mmHg 51%
    08:00 +15°C° 0 mm 2 mps 761 mmHg 47%
    09:00 +16°C° 0 mm 2 mps 761 mmHg 43%
    10:00 +18°C° 0 mm 2 mps 761 mmHg 39%
    11:00 +20°C° 0 mm 2 mps 761 mmHg 35%
    12:00 +23°C° 0 mm 2 mps 761 mmHg 32%
    13:00 +24°C° 0 mm 2 mps 761 mmHg 31%
    14:00 +24°C° 0 mm 1 mps 760 mmHg 31%
    15:00 +25°C° 0 mm 1 mps 760 mmHg 30%
    16:00 +22°C° 0 mm 1 mps 760 mmHg 36%
    17:00 +20°C° 0 mm 1 mps 760 mmHg 42%
    18:00 +18°C° 0 mm 1 mps 760 mmHg 47%
    19:00 +18°C° 0 mm 1 mps 760 mmHg 48%
    20:00 +16°C° 0 mm 1 mps 761 mmHg 49%
    21:00 +16°C° 0 mm 1 mps 761 mmHg 50%
    22:00 +15°C° 0 mm 1 mps 761 mmHg 50%
    23:00 +15°C° 0 mm 1 mps 761 mmHg 51%

    Tomorrow, 19 November, Sunday

    Time Temperature Precipitation Wind Pressure Humidity
    00:00 +14°C° 0 mm 1 mps 761 mmHg 51%
    01:00 +14°C° 0 mm 1 mps 761 mmHg 52%
    02:00 +14°C° 0 mm 1 mps 761 mmHg 53%
    03:00 +13°C° 0 mm 1 mps 761 mmHg 54%
    04:00 +13°C° 0 mm 2 mps 761 mmHg 54%
    05:00 +13°C° 0 mm 2 mps 761 mmHg 55%
    06:00 +13°C° 0 mm 2 mps 761 mmHg 56%
    07:00 +14°C° 0 mm 2 mps 761 mmHg 52%
    08:00 +15°C° 0 mm 2 mps 762 mmHg 48%
    09:00 +17°C° 0 mm 2 mps 762 mmHg 44%
    10:00 +19°C° 0 mm 2 mps 762 mmHg 41%
    11:00 +20°C° 0 mm 2 mps 762 mmHg 37%
    12:00 +23°C° 0 mm 2 mps 762 mmHg 34%
    13:00 +24°C° 0 mm 2 mps 762 mmHg 34%
    14:00 +24°C° 0 mm 2 mps 761 mmHg 33%
    15:00 +24°C° 0 mm 1 mps 761 mmHg 33%
    16:00 +22°C° 0 mm 1 mps 761 mmHg 39%
    17:00 +20°C° 0 mm 1 mps 761 mmHg 46%
    18:00 +18°C° 0 mm 1 mps 761 mmHg 52%
    19:00 +16°C° 0 mm 1 mps 762 mmHg 53%
    20:00 +16°C° 0 mm 1 mps 762 mmHg 54%
    21:00 +16°C° 0 mm 1 mps 762 mmHg 56%
    22:00 +15°C° 0 mm 1 mps 762 mmHg 56%
    23:00 +15°C° 0 mm 1 mps 762 mmHg 57%

    Day after tomorrow, 20 November, Monday

    Time Temperature Precipitation Wind Pressure Humidity
    00:00 +14°C° 0 mm 2 mps 763 mmHg 58%
    01:00 +14°C° 0 mm 2 mps 763 mmHg 59%
    02:00 +14°C° 0 mm 2 mps 763 mmHg 60%
    03:00 +13°C° 0 mm 2 mps 763 mmHg 61%
    04:00 +13°C° 0 mm 2 mps 762 mmHg 61%
    05:00 +13°C° 0 mm 2 mps 762 mmHg 61%
    06:00 +11°C° 0 mm 3 mps 762 mmHg 61%
    07:00 +13°C° 0 mm 3 mps 763 mmHg 56%
    08:00 +14°C° 0 mm 3 mps 763 mmHg 52%
    09:00 +16°C° 0 mm 3 mps 763 mmHg 47%
    10:00 +18°C° 0 mm 3 mps 763 mmHg 43%
    11:00 +20°C° 0 mm 3 mps 763 mmHg 38%
    12:00 +22°C° 0 mm 3 mps 763 mmHg 34%
    13:00 +24°C° 0 mm 3 mps 762 mmHg 33%
    14:00 +24°C° 0 mm 3 mps 762 mmHg 32%
    15:00 +24°C° 0 mm 2 mps 761 mmHg 31%
    16:00 +21°C° 0 mm 2 mps 762 mmHg 36%
    17:00 +19°C° 0 mm 2 mps 762 mmHg 42%
    18:00 +16°C° 0 mm 1 mps 762 mmHg 48%
    19:00 +16°C° 0 mm 1 mps 762 mmHg 50%
    20:00 +15°C° 0 mm 1 mps 762 mmHg 51%
    21:00 +15°C° 0 mm 1 mps 763 mmHg 53%
    22:00 +15°C° 0 mm 1 mps 763 mmHg 53%
    23:00 +14°C° 0 mm 1 mps 763 mmHg 53%

    21 November, Tuesday

    Time Temperature Precipitation Wind Pressure Humidity
    00:00 +14°C° 0 mm 2 mps 762 mmHg 53%
    01:00 +13°C° 0 mm 2 mps 762 mmHg 53%
    02:00 +13°C° 0 mm 2 mps 762 mmHg 53%
    03:00 +13°C° 0 mm 2 mps 762 mmHg 53%
    04:00 +13°C° 0 mm 2 mps 762 mmHg 53%
    05:00 +12°C° 0 mm 2 mps 762 mmHg 53%
    06:00 +11°C° 0 mm 3 mps 762 mmHg 53%
    07:00 +12°C° 0 mm 3 mps 762 mmHg 49%
    08:00 +14°C° 0 mm 3 mps 762 mmHg 45%
    09:00 +15°C° 0 mm 4 mps 762 mmHg 41%
    10:00 +18°C° 0 mm 4 mps 762 mmHg 37%
    11:00 +20°C° 0 mm 4 mps 761 mmHg 33%
    12:00 +22°C° 0 mm 4 mps 761 mmHg 30%
    13:00 +22°C° 0 mm 3 mps 761 mmHg 30%
    14:00 +22°C° 0 mm 3 mps 760 mmHg 31%
    15:00 +22°C° 0 mm 3 mps 760 mmHg 32%
    16:00 +20°C° 0 mm 2 mps 760 mmHg 39%
    17:00 +18°C° 0 mm 2 mps 760 mmHg 47%
    18:00 +16°C° 0 mm 1 mps 760 mmHg 54%
    19:00 +15°C° 0 mm 2 mps 760 mmHg 55%
    20:00 +15°C° 0 mm 2 mps 760 mmHg 57%
    21:00 +15°C° 0 mm 2 mps 760 mmHg 58%
    22:00 +14°C° 0 mm 2 mps 760 mmHg 59%
    23:00 +13°C° 0 mm 3 mps 760 mmHg 60%

    22 November, Wednesday

    Time Temperature Precipitation Wind Pressure Humidity
    00:00 +13°C° 0 mm 3 mps 760 mmHg 60%
    01:00 +13°C° 0 mm 3 mps 759 mmHg 60%
    02:00 +13°C° 0 mm 3 mps 759 mmHg 60%
    03:00 +13°C° 0 mm 3 mps 758 mmHg 60%
    04:00 +13°C° 0 mm 3 mps 758 mmHg 57%
    05:00 +13°C° 0 mm 4 mps 758 mmHg 54%
    06:00 +12°C° 0 mm 4 mps 758 mmHg 52%
    07:00 +13°C° 0 mm 4 mps 758 mmHg 49%
    08:00 +14°C° 0 mm 5 mps 758 mmHg 47%
    09:00 +15°C° 0 mm 5 mps 758 mmHg 44%
    10:00 +16°C° 0 mm 5 mps 758 mmHg 44%
    11:00 +19°C° 0 mm 6 mps 757 mmHg 43%
    12:00 +20°C° 0 mm 6 mps 757 mmHg 42%
    13:00 +21°C° 0 mm 7 mps 757 mmHg 45%
    14:00 +21°C° 0 mm 7 mps 757 mmHg 47%
    15:00 +21°C° 0 mm 7 mps 756 mmHg 50%
    16:00 +20°C° 0 mm 6 mps 756 mmHg 57%
    17:00 +19°C° 0 mm 6 mps 757 mmHg 63%
    18:00 +17°C° 0 mm 6 mps 757 mmHg 70%
    19:00 +17°C° 0 mm 5 mps 757 mmHg 71%
    20:00 +17°C° 0 mm 5 mps 757 mmHg 71%
    21:00 +17°C° 0 mm 5 mps 758 mmHg 72%
    22:00 +17°C° 0 mm 5 mps 757 mmHg 71%
    23:00 +17°C° 0 mm 6 mps 757 mmHg 71%

    23 November, Thursday

    Time Temperature Precipitation Wind Pressure Humidity
    00:00 +17°C° 0 mm 6 mps 757 mmHg 70%
    01:00 +17°C° 0 mm 6 mps 757 mmHg 72%
    02:00 +16°C° 0 mm 6 mps 757 mmHg 73%
    03:00 +16°C° 0 mm 6 mps 757 mmHg 75%
    04:00 +16°C° 0 mm 6 mps 757 mmHg 76%
    05:00 +16°C° 0 mm 6 mps 757 mmHg 77%
    06:00 +16°C° 0 mm 6 mps 757 mmHg 78%
    07:00 +16°C° 0 mm 6 mps 758 mmHg 73%
    08:00 +17°C° 0 mm 6 mps 758 mmHg 68%
    09:00 +18°C° 0 mm 7 mps 759 mmHg 62%
    10:00 +20°C° 0 mm 7 mps 759 mmHg 54%
    11:00 +22°C° 0 mm 7 mps 759 mmHg 45%
    12:00 +23°C° 0 mm 8 mps 759 mmHg 37%
    13:00 +23°C° 0 mm 8 mps 759 mmHg 37%
    14:00 +23°C° 0 mm 8 mps 758 mmHg 36%
    15:00 +23°C° 0 mm 8 mps 758 mmHg 36%
    16:00 +22°C° 0 mm 7 mps 758 mmHg 44%
    17:00 +20°C° 0 mm 7 mps 759 mmHg 53%
    18:00 +17°C° 0 mm 6 mps 759 mmHg 62%
    19:00 +17°C° 0 mm 6 mps 759 mmHg 64%
    20:00 +17°C° 0 mm 6 mps 759 mmHg 66%
    21:00 +17°C° 0 mm 6 mps 760 mmHg 68%
    22:00 +16°C° 0.1 mm 6 mps 760 mmHg 69%
    23:00 +16°C° 0.1 mm 6 mps 759 mmHg 70%
    Show more